Showing default

GONETS M 12 (M22), 40553

Orbit data source: Space-Track

GONETS M 12 (M22), 40553 is a payload satellite owned by Gonets (CIS) in LEO that was launched on Tue, 31 Mar 2015 UTC via an ROKOT launch vehicle from the Plesetsk Missile And Space Complex (PKMTR). Payloads include a variety of satellites, spacecraft, and rockets equipped with specific instruments for various scientific and technological missions. These include communications satellites like Starlink; space stations such as the ISS; scientific satellites like the Hubble; Earth observation satellites from companies like Planet Labs, Umbra, and HawkEye 360; GPS; miniature CubeSats for education and research; and military/defense satellites.

Loading next visibility...
GONETS M 12 (M22) details
Identifier
40553, 2015-020B
Orbit
LEO
Last TLE update10 hours ago
Origin
Flag of CISGonets (CIS)
ManufacturerResehetnev ISS
MissionOperational Civil Communications
Bus & MotorSTRELA-3M, Unknown motor
Mass225 kg wet, 225 kg dry
Launch date (UTC)
2015-03-31 (10 years ago)
Launch vehicle
ROKOT
Launch site
Plesetsk Missile And Space Complex (PKMTR)
Object type
Payload
Rocket body
Debris
Shape & HBRCyl + 1 Ant, 7 m
Radar Cross Section1.798 m², Large (>1 m²)

Expand to show TLE details & history

TLE from 10 hours ago
0 GONETS M 12 (M22)
1 40553U 15020B   24361.09624099  .00000041  00000-0  22674-3 0  9999
2 40553  82.4899   7.2141 0016123  82.5977 277.6934 12.42894016441920
Epoch: 2024-12-26T02:18Z
Definitive object data (Epoch: 2024-12-26T02:18:35.221Z)
Latitude-0.00004°
Longitude-122.5132°
Altitude1,495.379 km
Speed7.117 km/s
True Right ascension00h 28m 51s
True Declination0° 00' 00"
Sunlit
Object was in daylight at TLE epoch
Visualization TLE readout
Latitude-21.42337°
Longitude-125.7113°
Altitude1,505.111 km
Speed7.11 km/s
Apparent Right ascension23h 50m 43s
Apparent Declination-29° 45' 53"
Sunlit
Object is in daylight
Visualization observer readout
Local Sidereal Time11:12:39
Azimuth319.586° NNW
Elevation-77.208°
Doppler factor1
Orbital elements
Apogee altitude1,504.399 km
Perigee altitude1,479.022 km
Semi-major axis7,869.848 km
Eccentricity0.0016123
Inclination82.4899°
RAAN7.2141°
Arg. of periapsis82.5977°
True anomaly277.51026°
Mean anomaly277.6934°
Eccentric anomaly277.60183°
Mean motion3.10881 °/min
BSTAR0.00022674
Orbital period115.8 mins
Loading maneuver chart data...
Loading historical data...
Loading historical data...
Loading historical data...
Loading historical data...
Loading historical data...
Loading historical data...
Loading historical data...

GONETS M 12 (M22) Visibility forecast

Observer location: undefined°, undefined

Span
Click to sort rows by Start time (UTC) header in descending order
Start Az.
Max El. time (UTC)
Max El. Az.
Max El.
End time (UTC)
End Az.
16 mins2024-12-26 12:35:14.031Z351.713° N2024-12-26 12:43:14.031Z202.802° SW44.92°2024-12-26 12:51:14.031Z175.967° S
8 mins2024-12-26 14:35:14.031Z307.652° NW2024-12-26 14:38:14.031Z285.014° WNW15.692°2024-12-26 14:43:14.031Z248.985° W
10 mins2024-12-26 23:42:14.031Z116.504° SE2024-12-26 23:47:14.031Z75.736° E20.103°2024-12-26 23:52:14.031Z38.043° NE
16 mins2024-12-27 01:35:14.031Z194.179° SSW2024-12-27 01:42:14.031Z255.414° W43.928°2024-12-27 01:51:14.031Z4.812° NNE
7 mins2024-12-27 03:38:14.031Z279.416° WNW2024-12-27 03:41:14.031Z301.671° NW14.039°2024-12-27 03:45:14.031Z330.092° NNW
5 mins2024-12-27 11:46:14.031Z3.591° NNE2024-12-27 11:51:14.031Z33.792° NE34.596°2024-12-27 11:51:14.031Z33.792° NE
|